EW3084 Weather Reports


Display with metric or nautical units.
time (UTC)temp
F
wind
direction
speed
MPH
gust
MPH
rain 1hr
in
rain 24hr
in
rain mn
in
humidity
%
barometer
mb
20260505100003 47 293 8.0 17.0 0.00 0.03 0.00 36
20260505095403 48 292 5.0 16.0 0.00 0.03 0.00 37
20260505094503 47 282 5.0 12.0 0.00 0.03 0.00 38
20260505093603 46 288 6.0 14.0 0.00 0.03 0.00 38
20260505092703 45 288 6.0 20.0 0.00 0.03 0.00 41
20260505091803 46 289 6.0 17.0 0.00 0.03 0.00 41
20260505091117 47 297 6.0 17.0 0.00 0.03 0.00 41
20260505090003 46 294 7.0 16.0 0.00 0.03 0.00 40
20260505085403 46 288 8.0 14.0 0.00 0.03 0.00 40
20260505084503 47 292 6.0 12.0 0.00 0.03 0.00 40
20260505083603 46 292 8.0 14.0 0.00 0.03 0.00 43
20260505082703 45 286 6.0 13.0 0.00 0.03 0.00 44
20260505081803 46 311 7.0 16.0 0.00 0.03 0.00 43
20260505080903 46 315 6.0 14.0 0.00 0.03 0.00 47
20260505080003 45 295 8.0 14.0 0.00 0.03 0.00 47
20260505075403 45 300 7.0 17.0 0.00 0.03 0.00 45
20260505074503 45 297 6.0 17.0 0.00 0.03 0.00 47
20260505073603 45 318 5.0 13.0 0.00 0.03 0.00 48
20260505072918 44 295 6.0 12.0 0.00 0.03 0.00 47
20260505071803 44 293 5.0 14.0 0.00 0.03 0.00 49
20260505070903 43 319 2.0 6.0 0.00 0.03 0.00 56
20260505070003 42 290 4.0 11.0 0.00 0.03 0.00 58
20260505065403 42 288 3.0 11.0 0.00 0.03 0.00 59
20260505064503 42 339 1.0 5.0 0.00 0.03 0.00 60
20260505063603 42 298 3.0 9.0 0.00 0.03 0.00 61
20260505062703 42 327 3.0 9.0 0.00 0.03 0.00 61
20260505062017 42 329 2.0 10.0 0.00 0.03 0.00 63
20260505060903 41 310 2.0 10.0 0.00 0.03 0.00 65
20260505060003 40 314 1.0 6.0 0.00 0.03 0.00 68
20260505055403 40 342 1.0 5.0 0.00 0.03 0.00 70
20260505054503 40 311 0.0 5.0 0.00 0.03 0.00 72
20260505053603 40 327 0.0 2.0 0.00 0.03 0.00 73
20260505052703 39 326 1.0 6.0 0.00 0.03 0.00 72
20260505051803 39 324 1.0 5.0 0.00 0.03 0.00 76
20260505050903 38 227 0.0 3.0 0.00 0.03 0.00 78
20260505050219 38 0 0.0 0.0 0.00 0.03 0.00 79
20260505040903 36 30 0.0 1.0 0.00 0.03 0.00 79
20260505040003 36 269 0.0 1.0 0.00 0.03 0.00 79
20260505035403 36 263 0.0 2.0 0.00 0.03 0.00 78
20260505034503 36 261 0.0 2.0 0.00 0.03 0.00 78
20260505033603 36 274 1.0 3.0 0.00 0.03 0.00 78
20260505032703 36 290 0.0 2.0 0.00 0.03 0.00 79
20260505031803 37 290 1.0 3.0 0.00 0.03 0.00 78
20260505030903 37 286 1.0 5.0 0.00 0.03 0.00 78
20260505030003 38 300 1.0 3.0 0.00 0.03 0.00 78
20260505025403 38 291 1.0 4.0 0.00 0.03 0.00 78
20260505024503 38 286 1.0 3.0 0.00 0.03 0.00 78
20260505023603 39 277 0.0 3.0 0.00 0.03 0.00 78
20260505022703 39 284 1.0 4.0 0.00 0.03 0.00 77
20260505021803 39 294 0.0 3.0 0.00 0.03 0.00 77
20260505020903 40 294 1.0 5.0 0.00 0.03 0.00 75
20260505020003 40 302 1.0 5.0 0.00 0.03 0.00 75
20260505015403 40 290 2.0 7.0 0.00 0.03 0.00 74
20260505014717 40 288 2.0 5.0 0.00 0.03 0.00 74
20260505013603 41 290 3.0 10.0 0.00 0.03 0.00 72
20260505012703 41 292 2.0 10.0 0.00 0.03 0.00 72
20260505011803 42 297 2.0 9.0 0.00 0.03 0.00 72
20260505010903 42 300 2.0 6.0 0.00 0.03 0.00 73
20260505010003 42 295 3.0 9.0 0.00 0.03 0.00 72
20260505005617 42 295 2.0 9.0 0.00 0.03 0.00 72
20260505004503 42 290 4.0 9.0 0.00 0.03 0.00 76
20260505003816 42 290 3.0 11.0 0.00 0.03 0.00 80
20260505002703 43 296 3.0 7.0 0.00 0.03 0.00 83
20260505001803 43 281 2.0 6.0 0.00 0.03 0.00 84
20260505000903 44 285 3.0 9.0 0.00 0.03 0.00 83
20260505000003 44 289 3.0 9.0 0.00 0.03 0.00 83
20260504235617 44 285 3.0 11.0 0.00 0.03 0.00 82
20260504234503 44 284 4.0 8.0 0.00 0.03 0.00 82
20260504233603 45 277 5.0 12.0 0.00 0.03 0.00 81
20260504232703 45 276 5.0 12.0 0.00 0.03 0.00 80
20260504231803 45 277 5.0 16.0 0.00 0.03 0.00 80
20260504230903 46 263 6.0 13.0 0.00 0.03 0.00 79
20260504230003 46 267 7.0 18.0 0.00 0.03 0.00 78
20260504225403 46 270 6.0 18.0 0.00 0.03 0.00 78
20260504224503 46 276 5.0 14.0 0.00 0.03 0.00 78
20260504223819 46 263 6.0 15.0 0.00 0.03 0.00 77
20260504222703 47 269 7.0 16.0 0.00 0.03 0.00 76
20260504221803 47 267 8.0 17.0 0.00 0.03 0.00 75
20260504221117 47 267 6.0 13.0 0.00 0.03 0.00 74
20260504220216 47 270 8.0 18.0 0.00 0.03 0.00 72
20260504215403 48 264 8.0 16.0 0.00 0.03 0.03 70
20260504214503 48 264 8.0 21.0 0.00 0.03 0.03 67
20260504213603 48 269 8.0 17.0 0.00 0.03 0.03 64
20260504212703 48 274 7.0 14.0 0.00 0.03 0.03 61
20260504212017 48 272 7.0 14.0 0.00 0.03 0.03 59
20260504210903 48 267 8.0 19.0 0.00 0.03 0.03 56
20260504210003 49 264 7.0 17.0 0.00 0.03 0.03 54
20260504205615 49 265 7.0 17.0 0.00 0.03 0.03 54
20260504204719 49 276 6.0 13.0 0.00 0.03 0.03 54
20260504203603 49 267 6.0 15.0 0.00 0.03 0.03 53
20260504202703 49 273 6.0 15.0 0.00 0.03 0.03 53
20260504202017 49 272 6.0 12.0 0.00 0.03 0.03 53
20260504201116 50 267 8.0 15.0 0.00 0.03 0.03 53
20260504200003 50 270 8.0 22.0 0.00 0.03 0.03 51
20260504195619 50 269 6.0 15.0 0.00 0.03 0.03 51
20260504194503 51 270 8.0 16.0 0.00 0.03 0.03 51
20260504193818 51 271 8.0 16.0 0.00 0.03 0.03 51
20260504192703 51 265 7.0 16.0 0.00 0.03 0.03 50
20260504191803 52 267 8.0 16.0 0.00 0.03 0.03 49
20260504190903 52 271 7.0 16.0 0.00 0.03 0.03 48
20260504190003 52 271 7.0 15.0 0.00 0.03 0.03 46
20260504185619 52 273 7.0 20.0 0.00 0.03 0.03 45
20260504184503 53 272 6.0 13.0 0.00 0.03 0.03 43
20260504183603 53 270 7.0 14.0 0.00 0.03 0.03 42
20260504182703 54 272 6.0 14.0 0.00 0.03 0.03 41
20260504181803 54 270 7.0 17.0 0.00 0.03 0.03 39
20260504181115 55 274 7.0 18.0 0.00 0.03 0.03 39
20260504180003 56 276 8.0 16.0 0.00 0.03 0.03 36
20260504175403 56 264 8.0 18.0 0.00 0.03 0.03 36
20260504174503 57 275 8.0 20.0 0.00 0.03 0.03 33
20260504173603 57 284 6.0 15.0 0.00 0.03 0.03 30
20260504172703 57 278 8.0 16.0 0.00 0.03 0.03 31
20260504171803 57 284 7.0 15.0 0.00 0.03 0.03 30
20260504170903 58 279 8.0 16.0 0.00 0.03 0.03 30
20260504160218 58 276 9.0 16.0 0.01 0.03 0.03 46
20260504150903 57 281 9.0 17.0 0.00 0.02 0.02 48
20260504140903 52 287 4.0 13.0 0.02 0.02 0.02 83
20260504140217 50 297 2.0 7.0 0.02 0.02 0.02 89
20260504130217 54 250 5.0 12.0 0.00 0.00 0.00 64
20260504100216 51 287 9.0 15.0 0.00 0.01 0.00 73